Regional Weather Roundup
Issued by NWS Sioux Falls, SD

Home | Current Version | Previous Version | Text Only | Print | Product List | Glossary On
Versions: 1 2 3 4 5 6 7 8 9 10 11 12 13 14 15 16 17 18 19 20 21 22 23 24 25 26 27 28 29 30 31 32 33 34 35 36 37 38 39 40 41 42 43 44 45 46 47 48 49 50
942
ASUS43 KFSD 180210
RWRFSD

WEATHER ROUNDUP FOR SE SOUTH DAKOTA/SW MINNESOTA/NW IOWA
NATIONAL WEATHER SERVICE SIOUX FALLS SD
900 PM CDT THU AUG 17 2017

NOTE: "FAIR" INDICATES FEW OR NO CLOUDS BELOW 12,000 FEET WITH NO
SIGNIFICANT WEATHER AND OR OBSTRUCTIONS TO VISIBILITY.


SDZ038>040-050-052>070-180300-
SOUTHEAST SOUTH DAKOTA

CITY           SKY/WX    TMP DP  RH WIND       PRES   REMARKS
BROOKINGS      CLEAR     68  60  75 CALM      29.90S
CHAMBERLAIN    CLOUDY    76  64  68 W16       29.89R
HURON          PTCLDY    71  60  68 E7        29.85S
MADISON        FAIR      68  64  88 E3        29.91R
MITCHELL       CLOUDY    70  63  78 E8        29.85S
SIOUX FALLS    PTCLDY    66  62  87 CALM      29.89S
WINNER         TSTM      75  53  46 SE13G30   29.89R
YANKTON        CLEAR     70  62  76 E8        29.88F
$$

MNZ071-072-080-081-089-090-097-098-180300-
SOUTHWEST MINNESOTA

CITY           SKY/WX    TMP DP  RH WIND       PRES   REMARKS
FAIRMONT       CLEAR     65  61  87 NW6       29.88R
JACKSON        CLEAR     63  59  88 CALM      29.90R
LUVERNE        CLEAR     64  61  88 CALM      29.90S
MARSHALL       CLEAR     65  61  87 NW5       29.89R
MONTEVIDEO     CLEAR     64  61  88 NW3       29.87R
PIPESTONE      CLEAR     66  63  88 CALM      29.91R
REDWOOD FALLS  CLEAR     67  61  81 W6        29.86R
TRACY          CLEAR     66  62  86 CALM      29.89R
WINDOM         CLEAR     64  61  88 W3        29.90R
WORTHINGTON    CLEAR     66  62  87 N3        29.91R
$$

IAZ001>003-012>014-020>022-031-032-NEZ013-014-SDZ071-180300-
NORTHWEST IOWA

CITY           SKY/WX    TMP DP  RH WIND       PRES   REMARKS
CHEROKEE       CLEAR     67  62  86 CALM      29.90R
DENISON        CLEAR     66  63  88 CALM      29.92S
ESTHERVILLE    CLEAR     63  62  97 NW3       29.88R
LE MARS        CLEAR     68  66  94 CALM      29.89S
ORANGE CITY    CLEAR     70  66  88 CALM      29.91R
SHELDON        CLEAR     63  63 100 CALM      29.89R
SIOUX CITY     CLEAR     70  63  78 CALM      29.89S
SPENCER        CLEAR     67  63  87 W7        29.89S
STORM LAKE     CLEAR     66  63  88 W7        29.91R
$$

ABBREVIATIONS USED IN REMARKS
   TC - TEMPERATURE IN CELSIUS
  WCI - WIND CHILL INDEX
   HX - HEAT INDEX
  VSB - VISIBILITY





USA.gov is the U.S. government's official web portal to all federal, state and local government web resources and services.